Location: Cedar Brake
(32.2526°N, 97.8459°W)
Time: 20:31:54
(UTC+00:00)

Cosmos 1805 Rocket - Pass Details

Date: 22 April 2026
Orbit: 599 x 623 km, 82.5° (Epoch: 21 May)

Event Time Altitude Azimuth Distance (km) Brightness Sun altitude
Rises 10:38:02 0° 356° (N) 2,888 7.3 -15.9°
Reaches altitude 10° 10:40:17 10° 359° (N) 1,975 6.5 -15.5°
Maximum altitude 10:44:38 68° 83° (E) 656 3.9 -14.7°
Drops below altitude 10° 10:48:55 10° 167° (SSE) 1,948 6.0 -13.8°
Sets 10:51:08 0° 169° (S) 2,843 6.8 -13.4°
